This is the latest recevied weather packets stored in our database for station/object 2E1HJE-10. If no packets are shown the sender has not sent any weather packets the latest 10 day(s).
| Time | Temp. | Humidity | Pressure | Rain* | Wind** | Luminosity | Snow |
|---|---|---|---|---|---|---|---|
| 1777589907 | 9.44° C | 67% | 1021.8 hPa | 0 mm | - | - | - |
| 1777589307 | 9.44° C | 67% | 1021.8 hPa | 0 mm | - | - | - |
| 1777588707 | 8.89° C | 72% | 1021.7 hPa | 0 mm | - | - | - |
| 1777588108 | 8.89° C | 72% | 1021.7 hPa | 0 mm | - | - | - |
| 1777587508 | 8.89° C | 72% | 1021.7 hPa | 0 mm | - | - | - |
| 1777586907 | 8.89° C | 72% | 1021.7 hPa | 0 mm | - | - | - |
| 1777586308 | 8.89° C | 80% | 1021.6 hPa | 0 mm | - | - | - |
| 1777585708 | 8.89° C | 80% | 1021.6 hPa | 0 mm | - | - | - |
| 1777585108 | 8.33° C | 80% | 1021.6 hPa | 0 mm | - | - | - |
| 1777584508 | 8.33° C | 80% | 1021.6 hPa | 0 mm | - | - | - |
| 1777583907 | 7.78° C | 80% | 1021.7 hPa | 0 mm | - | - | - |
| 1777583308 | 7.78° C | 80% | 1021.7 hPa | 0 mm | - | - | - |
| 1777582708 | 8.33° C | 81% | 1021.5 hPa | 0 mm | - | - | - |
| 1777582109 | 8.33° C | 81% | 1021.5 hPa | 0 mm | - | - | - |
| 1777581508 | 8.89° C | 71% | 1021.5 hPa | 0 mm | - | - | - |
| 1777580908 | 9.44° C | 71% | 1021.5 hPa | 0 mm | - | - | - |
| 1777579708 | 10° C | 71% | 1021.5 hPa | 0 mm | - | - | - |
| 1777579109 | 10° C | 73% | 1021.2 hPa | 0 mm | - | - | - |
| 1777578508 | 10° C | 73% | 1021.2 hPa | 0 mm | - | - | - |
| 1777577908 | 10.56° C | 63% | 1021.1 hPa | 0 mm | - | - | - |
| 1777577308 | 11.67° C | 63% | 1021.1 hPa | 0 mm | - | - | - |
| 1777576708 | 11.67° C | 63% | 1021.1 hPa | 0 mm | - | - | - |
| 1777576107 | 12.78° C | 63% | 1021.1 hPa | 0 mm | - | - | - |
| 1777575509 | 13.33° C | 48% | 1020.9 hPa | 0 mm | - | - | - |
| 1777574909 | 13.33° C | 48% | 1020.9 hPa | 0 mm | - | - | - |
* Rain latest hour (hover to see other rain measurements)
** Current wind speed in m/s (hover to see current wind gust speed)